Flag for Germany Weather past 2 weeks in Bottrop, North Rhine-Westphalia, Germany

Now
70 °F

Passing clouds.


Feels Like: 70 °F
Forecast: 53 / 77 °F
Wind: 8 mph from Southwest

Location: Duesseldorf

Current Time: Aug 28, 2015 at 5:32:36 PM

Latest Report: Aug 28, 2015 at 4:50 PM


Visibility: N/A

Pressure: 30.09 "Hg

Humidity: 57%

Dew point: 54 °F

Location of BottropLocation

Historic Weather in Bottrop — Graph

°F

Bottrop temperature yesterday

Maximum temperature yesterday: 75 °F (at 12:50 AM)
Minimum temperature yesterday: 55 °F (at 8:20 PM)
Average temperature yesterday: 63 °F

Past Weeks' High & Low Weather Summary

 TemperatureHumidityPressure
High86 °F (Aug 13, 4:20 PM)100% (Aug 16, 2:50 AM)30.24 "Hg (Aug 16, 2:50 AM)
Low50 °F (Aug 19, 4:50 AM)30% (Aug 22, 5:20 PM)29.50 "Hg (Aug 24, 4:50 PM)
Average66 °F73%29.92 "Hg
* Reported Aug 13 4:20 PM — Aug 28 4:20 PM, Bottrop, Weather by CustomWeather, © 2015

Note: Actual official high and low records may vary slightly from our data, if they occured in-between our weather recording intervals... More about our weather records

Advertising

Bottrop weather history for previous 24 hours

 ConditionsComfort  
Time TempWeatherWind HumidityBarometerVisibility
4:20 PM
Fri, Aug 28
68 °FScattered clouds.9 mph60%30.09 "HgN/A
3:50 PM68 °FScattered clouds.7 mph60%30.09 "HgN/A
3:20 PM70 °FPassing clouds.8 mph60%30.09 "HgN/A
2:50 PM70 °FPassing clouds.8 mph60%30.09 "HgN/A
2:20 PM68 °FPassing clouds.7 mph64%30.07 "HgN/A
1:50 PM68 °FPassing clouds.7 mph64%30.07 "HgN/A
1:20 PM66 °FScattered clouds.7 mph64%30.07 "HgN/A
12:50 PM66 °FScattered clouds.9 mph68%30.07 "HgN/A
12:20 PM64 °FScattered clouds.7 mph68%30.07 "HgN/A
11:50 AM64 °FScattered clouds.8 mph73%30.07 "HgN/A
11:20 AM63 °FPartly sunny.8 mph77%30.04 "HgN/A
10:50 AM63 °FScattered clouds.7 mph83%30.04 "HgN/A
10:20 AM61 °FPassing clouds.6 mph83%30.04 "HgN/A
9:50 AM61 °FPassing clouds.7 mph83%30.04 "HgN/A
9:20 AM59 °FPassing clouds.7 mph88%30.04 "HgN/A
8:50 AM59 °FPassing clouds.8 mph88%30.01 "HgN/A
8:20 AM57 °FPassing clouds.7 mph94%30.01 "HgN/A
7:50 AM57 °FPassing clouds.7 mph94%30.01 "HgN/A
7:20 AM57 °FPassing clouds.8 mph94%29.98 "HgN/A
6:50 AM57 °FPartly cloudy.8 mph94%29.98 "HgN/A
6:20 AM57 °FPartly cloudy.8 mph94%29.98 "HgN/A
5:50 AM57 °FPartly cloudy.7 mph94%29.98 "HgN/A
5:20 AM57 °FPassing clouds.6 mph94%29.95 "HgN/A
4:50 AM57 °FPartly cloudy.6 mph94%29.95 "HgN/A
4:20 AM57 °FPartly cloudy.5 mph94%29.95 "HgN/A
3:50 AM57 °FPassing clouds.5 mph94%29.95 "HgN/A
3:20 AM57 °FPartly cloudy.6 mph94%29.95 "HgN/A
2:50 AM57 °FPartly cloudy.5 mph94%29.95 "HgN/A
2:20 AM57 °FPartly cloudy.6 mph94%29.92 "HgN/A
1:50 AM57 °FPassing clouds.6 mph94%29.92 "HgN/A
1:20 AM57 °FPassing clouds.6 mph94%29.92 "HgN/A
12:50 AM57 °FPassing clouds.6 mph94%29.92 "HgN/A
12:20 AM55 °FLight rain. Partly cloudy.6 mph100%29.92 "HgN/A
11:50 PM
Thu, Aug 27
55 °FLight rain. Mostly cloudy.3 mph100%29.89 "HgN/A
11:20 PM55 °FRain. Overcast.6 mph100%29.92 "HgN/A
10:50 PM55 °FRain. Mostly cloudy.7 mph100%29.89 "HgN/A
10:20 PM55 °FLight rain. Mostly cloudy.6 mph100%29.89 "HgN/A
9:50 PM57 °FLight rain. Mostly cloudy.6 mph94%29.89 "Hg5 mi
9:20 PM57 °FLight rain. More clouds than sun.5 mph94%29.89 "Hg5 mi
8:50 PM57 °FLight rain. More clouds than sun.6 mph94%29.89 "HgN/A
8:20 PM55 °FLight rain. More clouds than sun.5 mph100%29.86 "HgN/A
7:50 PM57 °FLight rain. Broken clouds.6 mph94%29.86 "HgN/A
7:20 PM57 °FLight rain. Broken clouds.5 mph94%29.86 "HgN/A
6:50 PM57 °FLight rain. Broken clouds.3 mph94%29.86 "HgN/A
6:20 PM57 °FLight rain. Broken clouds.6 mph94%29.86 "HgN/A
5:50 PM57 °FLight rain. Broken clouds.6 mph94%29.86 "HgN/A
5:20 PM57 °FLight rain. Broken clouds.5 mph94%29.86 "HgN/A
Weather by CustomWeather, © 2015

See weather overviewHow to use our weather pages